FW6981 Weather Reports


time (UTC)temp
C
wind
direction
speed
KPH
gust
KPH
rain 1hr
cm
rain 24hr
cm
rain mn
cm
humidity
%
barometer
mb
20260906083048 19 0 0.0 0.0 0.00 0.00 0.00 96 1015.1
20260906081545 20 0 0.0 0.0 0.00 0.00 0.00 96 1014.9
20260906080044 20 0 0.0 0.0 0.00 0.00 0.00 96 1015.0
20260906074546 20 0 0.0 0.0 0.00 0.00 0.00 96 1014.9
20260906073045 20 0 0.0 0.0 0.00 0.00 0.00 96 1014.8
20260906071552 20 0 0.0 0.0 0.00 0.00 0.00 96 1014.9
20260906070051 20 0 0.0 0.0 0.00 0.00 0.00 96 1015.0
20260906064546 20 0 0.0 0.0 0.00 0.00 0.00 96 1014.9
20260906063043 20 0 0.0 0.0 0.00 0.00 0.00 96 1014.9
20260906061555 20 0 0.0 0.0 0.00 0.00 0.00 96 1015.3
20260906060052 20 0 0.0 1.6 0.00 0.00 0.00 95 1015.6
20260906054549 20 0 0.0 3.2 0.00 0.00 0.00 95 1015.8
20260906053042 20 264 1.6 4.8 0.00 0.00 0.00 96 1015.9
20260906051555 20 0 0.0 0.0 0.00 0.00 0.00 95 1016.1
20260906050101 20 0 0.0 1.6 0.00 0.00 0.00 95 1016.2
20260906044544 20 0 0.0 1.6 0.00 0.00 0.00 95 1016.2
20260906043041 20 98 0.0 4.8 0.00 0.00 0.00 95 1016.1
20260906041552 20 0 0.0 3.2 0.00 0.00 0.00 95 1016.2
20260906040059 20 0 0.0 3.2 0.00 0.00 0.00 95 1016.2
20260906034545 20 100 0.0 4.8 0.00 0.00 0.00 95 1016.6
20260906033045 20 0 0.0 0.0 0.00 0.00 0.00 95 1016.1
20260906031550 21 0 0.0 1.6 0.00 0.00 0.00 94 1016.0
20260906030048 21 164 0.0 1.6 0.00 0.00 0.00 94 1016.2
20260906024550 21 0 0.0 1.6 0.00 0.00 0.00 94 1016.0
20260906023052 21 0 0.0 3.2 0.00 0.00 0.00 94 1015.9
20260906021551 21 163 0.0 3.2 0.00 0.00 0.00 93 1016.1
20260906020047 21 163 0.0 3.2 0.00 0.00 0.00 93 1015.9
20260906014615 21 163 0.0 3.2 0.00 0.00 0.00 93 1016.1
20260906013047 21 0 0.0 0.0 0.00 0.00 0.00 93 1015.8
20260906011541 21 0 0.0 3.2 0.00 0.00 0.00 92 1015.6
20260906010050 21 0 0.0 1.6 0.00 0.00 0.00 92 1015.6
20260906004556 21 0 0.0 3.2 0.00 0.00 0.00 92 1015.5
20260906003045 21 0 0.0 3.2 0.00 0.00 0.00 91 1015.1
20260906001544 22 0 0.0 3.2 0.00 0.00 0.00 91 1015.1
20260906000044 22 0 0.0 1.6 0.00 0.00 0.00 91 1015.3
20260905234546 22 0 0.0 3.2 0.00 0.00 0.00 91 1015.2
20260905233047 22 0 0.0 0.0 0.00 0.00 0.00 91 1015.4
20260905231543 22 0 0.0 0.0 0.00 0.00 0.00 91 1015.2
20260905230045 22 0 0.0 0.0 0.00 0.00 0.00 91 1015.2
20260905224545 22 0 0.0 0.0 0.00 0.00 0.00 90 1015.1
20260905223046 23 0 0.0 0.0 0.00 0.00 0.00 90 1014.9
20260905221620 23 0 0.0 3.2 0.00 0.00 0.00 90 1015.2
20260905220051 22 187 0.0 4.8 0.00 0.00 0.00 90 1015.4
20260905214547 22 196 0.0 3.2 0.00 0.00 0.00 90 1015.2
20260905213056 22 175 1.6 9.7 0.00 0.00 0.00 89 1015.6
20260905211550 22 0 0.0 4.8 0.00 0.00 0.00 90 1015.2
20260905210052 22 51 1.6 6.4 0.00 0.00 0.00 89 1015.6
20260905204554 22 0 0.0 4.8 0.00 0.00 0.00 90 1015.6
20260905203047 21 164 1.6 6.4 0.00 0.00 0.00 90 1015.7
20260905201601 21 188 1.6 4.8 0.00 0.00 0.00 88 1015.5
20260905200046 21 87 1.6 9.7 0.00 0.00 0.00 86 1016.0
20260905194549 21 78 3.2 9.7 0.00 0.00 0.00 85 1016.2
20260905193044 23 259 1.6 19.3 0.00 0.00 0.00 76 1017.1
20260905191544 27 17 4.8 20.9 0.00 0.00 0.00 61 1017.1
20260905190042 27 321 3.2 16.1 0.00 0.00 0.00 66 1016.6
20260905184554 28 94 3.2 24.1 0.00 0.00 0.00 63 1016.8
20260905183052 31 139 1.6 3.2 0.00 0.00 0.00 60 1016.6
20260905181606 33 0 0.0 14.5 0.00 0.00 0.00 49 1016.3
20260905180050 33 269 1.6 9.7 0.00 0.00 0.00 50 1016.6
20260905174543 32 199 3.2 9.7 0.00 0.00 0.00 52 1016.9
20260905173046 32 0 0.0 9.7 0.00 0.00 0.00 57 1017.1
20260905171544 33 147 4.8 14.5 0.00 0.00 0.00 55 1016.9
20260905170050 32 115 0.0 9.7 0.00 0.00 0.00 57 1017.1
20260905164545 32 139 3.2 9.7 0.00 0.00 0.00 55 1017.5
20260905163054 32 121 1.6 11.3 0.00 0.00 0.00 54 1017.7
20260905161601 32 190 1.6 11.3 0.00 0.00 0.00 58 1017.9
20260905160048 31 216 3.2 12.9 0.00 0.00 0.00 62 1017.9
20260905154544 31 128 1.6 6.4 0.00 0.00 0.00 61 1018.0
20260905153042 31 352 0.0 3.2 0.00 0.00 0.00 61 1018.3
20260905151546 31 352 0.0 4.8 0.00 0.00 0.00 64 1018.2
20260905150055 30 0 1.6 4.8 0.00 0.00 0.00 67 1018.2
20260905144552 30 15 0.0 6.4 0.00 0.00 0.00 65 1018.1
20260905143054 29 182 0.0 3.2 0.00 0.00 0.00 72 1018.1
20260905141548 28 184 1.6 4.8 0.00 0.00 0.00 75 1018.0
20260905140051 27 153 1.6 4.8 0.00 0.00 0.00 77 1018.1
20260905134549 26 244 1.6 4.8 0.00 0.00 0.00 82 1018.0
20260905133045 25 244 3.2 4.8 0.00 0.00 0.00 87 1018.2
20260905131542 24 245 1.6 4.8 0.00 0.00 0.00 90 1018.1
20260905130043 23 0 1.6 4.8 0.00 0.00 0.00 94 1018.0
20260905124550 22 0 0.0 3.2 0.00 0.00 0.00 95 1017.8
20260905123045 21 0 0.0 0.0 0.00 0.00 0.00 95 1017.9
20260905121544 21 0 0.0 0.0 0.00 0.00 0.00 95 1017.7
20260905120053 20 0 0.0 0.0 0.00 0.00 0.00 95 1017.6
20260905114550 20 0 0.0 0.0 0.00 0.00 0.00 95 1017.5
20260905113045 20 0 0.0 0.0 0.00 0.00 0.00 95 1017.3
20260905111552 20 0 0.0 0.0 0.00 0.00 0.00 95 1017.2
20260905110043 20 0 0.0 0.0 0.00 0.00 0.00 95 1016.8
20260905104608 20 0 0.0 0.0 0.00 0.00 0.00 95 1016.9
20260905103052 20 0 0.0 0.0 0.00 0.00 0.00 95 1016.9
20260905101546 20 0 0.0 0.0 0.00 0.00 0.00 95 1016.8
20260905100046 20 0 0.0 0.0 0.00 0.00 0.00 95 1016.7
20260905094541 20 0 0.0 0.0 0.00 0.00 0.00 95 1016.7
20260905093052 21 0 0.0 0.0 0.00 0.00 0.00 94 1016.8
20260905091605 21 0 0.0 0.0 0.00 0.00 0.00 94 1016.7
20260905090041 21 0 0.0 0.0 0.00 0.00 0.00 94 1016.7
20260905084604 21 0 0.0 0.0 0.00 0.00 0.00 94 1016.8